Location: Marshall
(39.8477°N, 87.1868°W)
Time: 03:38:51
(UTC+00:00)

BlueWalker 3 - Pass Details

Date: 11 May 2026
Orbit: 447 x 456 km, 53.2° (Epoch: 9 June)

Event Time Altitude Azimuth Distance (km) Brightness Sun altitude
Exits shadow 06:46:15 12° 54° (NE) 1,479 4.9 -30.5°
Drops below altitude 10° 06:46:29 10° 54° (NE) 1,572 5.0 -30.5°
Sets 06:48:37 0° 52° (NE) 2,447 6.2 -30.4°
